Home > Weather > Chennai > Past weeks

Flag for India Weather for the Past 2 Weeks in Chennai, Tamil Nadu, India

Now
79 °F

Passing clouds.


Feels Like: 81 °F
Forecast: 72 / 88 °F
Wind: 6 mph from Northeast

Location: Madras / Minambakkam

Current Time: Feb 8, 2016 at 8:58:48 PM

Latest Report: Feb 8, 2016 at 8:30 PM


Visibility: 4 mi

Pressure: 29.89 "Hg

Humidity: 74%

Dew point: 70 °F

Location of ChennaiLocation

Historic Weather in Chennai — Graph

°F

Chennai Temperature Yesterday

Maximum temperature yesterday: 90 °F (at 12:30 PM)
Minimum temperature yesterday: 73 °F (at 1:30 AM)
Average temperature yesterday: 82 °F

High & Low Weather Summary for the Past Weeks

 TemperatureHumidityPressure
High91 °F (Jan 30, 1:30 PM)100% (Feb 1, 6:30 AM)30.01 "Hg (Feb 1, 6:30 AM)
Low68 °F (Feb 2, 6:30 AM)30% (Feb 2, 1:30 PM)29.80 "Hg (Feb 6, 3:30 PM)
Average80 °F72%29.91 "Hg
* Reported Jan 24 7:30 PM — Feb 8 7:30 PM, Chennai, Weather by CustomWeather, © 2016

Note: Actual official high and low records may vary slightly from our data, if they occured in-between our weather recording intervals... More about our weather records

Advertising

Chennai Weather History for the Previous 24 Hours

 ConditionsComfort  
Time TempWeatherWind HumidityBarometerVisibility
7:30 PM
Mon, Feb 8
79 °FPassing clouds.9 mph74%29.89 "Hg4 mi
7:00 PM79 °FPassing clouds.8 mph74%29.86 "Hg4 mi
6:30 PM81 °FPassing clouds.7 mph70%29.86 "Hg4 mi
6:00 PM81 °FPassing clouds.9 mph70%29.83 "Hg4 mi
5:30 PM82 °FPassing clouds.9 mph62%29.83 "Hg4 mi
5:00 PM84 °FPassing clouds.6 mph58%29.83 "Hg4 mi
4:30 PM84 °FPassing clouds.6 mph62%29.80 "Hg4 mi
4:00 PM86 °FPassing clouds.7 mph55%29.80 "Hg4 mi
3:30 PM86 °FPassing clouds.12 mph55%29.83 "Hg4 mi
3:00 PM88 °FPassing clouds.12 mph55%29.83 "Hg4 mi
2:30 PM88 °FPassing clouds.5 mph55%29.83 "Hg4 mi
2:00 PM88 °FScattered clouds.12 mph55%29.86 "Hg4 mi
1:30 PM90 °FScattered clouds.8 mph52%29.86 "Hg4 mi
1:00 PM90 °FScattered clouds.7 mph59%29.89 "Hg4 mi
12:30 PM90 °FPassing clouds.8 mph55%29.89 "Hg4 mi
12:00 PM88 °FScattered clouds.6 mph59%29.92 "Hg4 mi
11:30 AM88 °FScattered clouds.8 mph59%29.92 "Hg4 mi
11:00 AM88 °FScattered clouds.8 mph59%29.92 "Hg4 mi
10:30 AM86 °FScattered clouds.3 mph62%29.95 "Hg3 mi
10:00 AM86 °FScattered clouds.3 mph62%29.95 "Hg2 mi
9:30 AM84 °FFog.No wind70%29.95 "Hg2 mi
9:00 AM82 °FFog.2 mph70%29.95 "Hg1 mi
8:30 AM81 °FFog.5 mph74%29.92 "Hg1 mi
8:00 AM77 °FFog.2 mph83%29.92 "Hg1 mi
7:30 AM75 °FFog.No wind83%29.89 "Hg1 mi
7:00 AM73 °FFog.No wind89%29.89 "Hg1 mi
6:30 AM75 °FFog.No wind83%29.89 "Hg1 mi
6:00 AM75 °FFog.No wind83%29.86 "Hg2 mi
5:30 AM75 °FFog.No wind89%29.86 "Hg2 mi
5:00 AM75 °FFog.2 mph83%29.86 "Hg2 mi
4:30 AM75 °FFog.2 mph89%29.86 "Hg2 mi
4:00 AM75 °FFog.No wind89%29.86 "Hg2 mi
3:30 AM75 °FFog.No wind83%29.86 "Hg3 mi
3:00 AM75 °FFog.No wind83%29.86 "Hg3 mi
2:30 AM77 °FFog.No wind83%29.86 "Hg3 mi
2:00 AM77 °FHaze.5 mph79%29.89 "Hg3 mi
1:30 AM77 °FHaze.5 mph79%29.89 "Hg3 mi
1:00 AM79 °FHaze.5 mph79%29.89 "Hg3 mi
12:30 AM79 °FHaze.5 mph79%29.92 "Hg3 mi
12:00 AM79 °FHaze.5 mph79%29.92 "Hg3 mi
11:30 PM
Sun, Feb 7
79 °FHaze.5 mph79%29.92 "Hg3 mi
11:00 PM79 °FHaze.5 mph79%29.92 "Hg3 mi
10:30 PM79 °FHaze.6 mph74%29.92 "Hg3 mi
10:00 PM81 °FHaze.6 mph74%29.92 "Hg3 mi
9:30 PM81 °FHaze.6 mph74%29.92 "Hg3 mi
9:00 PM81 °FHaze.8 mph70%29.92 "Hg3 mi
8:30 PM81 °FHaze.7 mph74%29.92 "Hg3 mi
8:00 PM81 °FHaze.8 mph74%29.92 "Hg3 mi
Weather by CustomWeather, © 2016

See weather overviewHow to use our weather pages